Weather History for Milford, UT

Change the Weather History Date:

Thursday, August 22, 2013

  Actual Average Record
Temperature  
Mean Temperature 75 °F -  
Max Temperature 91 °F 88 °F 97 °F (2006)
Min Temperature 59 °F 53 °F 48 °F (1996)
Cooling Degree Days 10    
Growing Degree Days 25 (Base 50)    
Moisture  
Dew Point 46 °F    
Average Humidity 37    
Maximum Humidity 67    
Minimum Humidity 11    
Precipitation  
Precipitation 0.00 in - - ()
Sea Level Pressure  
Sea Level Pressure 29.94 in    
Wind  
Wind Speed 6 mph (South)    
Max Wind Speed 17 mph    
Max Gust Speed 28 mph    
Visibility 10 miles    
Events      
Averages and records for this station are not official NWS values.
T = Trace of Precipitation, MM = Missing Value Source: NWS Daily Summary

Daily Weather History Graph

Daily Weather History Graph

Search for Another Location

Airport:

Trip Planner

Search our weather history database for the weather conditions in past years. The results will help you decide how hot, cold, wet, or windy it might be!

Date:

Astronomy

Aug. 22, 2013 Rise Set
Actual Time 6:52 AM MDT 8:16 PM MDT
Civil Twilight 6:25 AM MDT 8:43 PM MDT
Nautical Twilight 5:51 AM MDT 9:16 PM MDT
Astronomical Twilight 5:16 AM MDT 9:51 PM MDT
Moon 9:05 PM MDT (8/22) 8:43 AM MDT (8/22)
Length of Visible Light 14h 18m
Length of Day
13h 23m
Waning Gibbous, 96% of the Moon is Illuminated
Aug 22
Waning Gibbous
Aug 28
Last Quarter
Sep 5
New
Sep 12
First Quarter
Sep 19
Full

Hourly Weather History & Observations

Time (MDT) Temp. Dew Point Humidity Pressure Visibility Wind Dir Wind Speed Gust Speed Precip Events Conditions
12:52 AM 66.0 °F 52.0 °F 60% 29.96 in 10.0 mi South 4.6 mph - N/A   Clear
1:52 AM 66.9 °F 53.1 °F 61% 29.95 in 10.0 mi South 3.5 mph - N/A   Mostly Cloudy
2:52 AM 66.0 °F 51.1 °F 59% 29.95 in 10.0 mi North 3.5 mph - N/A   Partly Cloudy
3:52 AM 64.9 °F 52.0 °F 63% 29.97 in 10.0 mi NW 5.8 mph - N/A   Mostly Cloudy
4:52 AM 64.0 °F 53.1 °F 67% 29.97 in 10.0 mi Calm Calm - 0.00 in   Mostly Cloudy
5:52 AM 63.0 °F 50.0 °F 63% 29.98 in 10.0 mi Calm Calm - N/A   Clear
6:52 AM 61.0 °F 48.9 °F 64% 30.00 in 10.0 mi West 3.5 mph - N/A   Clear
7:52 AM 62.1 °F 48.9 °F 62% 30.03 in 10.0 mi West 6.9 mph - N/A   Clear
8:52 AM 64.9 °F 48.9 °F 56% 30.03 in 10.0 mi South 4.6 mph - N/A   Mostly Cloudy
9:52 AM 73.9 °F 48.0 °F 40% 30.00 in 10.0 mi South 6.9 mph - N/A   Clear
10:52 AM 80.1 °F 45.0 °F 29% 30.01 in 10.0 mi South 8.1 mph - N/A   Partly Cloudy
11:52 AM 84.0 °F 43.0 °F 24% 29.99 in 10.0 mi South 10.4 mph - N/A   Mostly Cloudy
12:52 PM 84.0 °F 42.1 °F 23% 29.97 in 10.0 mi SW 9.2 mph - N/A   Clear
1:52 PM 87.1 °F 42.1 °F 21% 29.93 in 10.0 mi SSE 6.9 mph - N/A   Clear
2:52 PM 88.0 °F 41.0 °F 19% 29.90 in 10.0 mi SSE 6.9 mph - N/A   Clear
3:52 PM 88.0 °F 41.0 °F 19% 29.88 in 10.0 mi ESE 17.3 mph 27.6 mph N/A   Clear
3:57 PM 87.8 °F 42.8 °F 21% 30.09 in 10.0 mi ESE 13.8 mph 27.6 mph N/A   Clear
4:52 PM 86.0 °F 44.1 °F 23% 29.87 in 10.0 mi ESE 9.2 mph - N/A   Clear
5:52 PM 86.0 °F 42.1 °F 21% 29.86 in 10.0 mi South 11.5 mph - N/A   Clear
6:52 PM 82.9 °F 43.0 °F 24% 29.88 in 10.0 mi West 15.0 mph - N/A   Clear
7:52 PM 79.0 °F 44.1 °F 29% 29.89 in 10.0 mi East 5.8 mph - N/A   Partly Cloudy
8:52 PM 75.0 °F 45.0 °F 34% 29.90 in 10.0 mi South 6.9 mph - N/A   Clear
9:52 PM 73.9 °F 46.0 °F 37% 29.89 in 10.0 mi SW 8.1 mph - N/A   Partly Cloudy
10:52 PM 73.9 °F 46.0 °F 37% 29.89 in 10.0 mi SW 10.4 mph - N/A   Clear
11:52 PM 72.0 °F 48.0 °F 43% 29.88 in 10.0 mi SSW 9.2 mph - N/A   Mostly Cloudy